SWA3848 KPHX-KOMA

Flight info

Callsign SWA3848
Flight time 2h 2m
Altitude 39000
Route MRBIL1 JARPA RSK BRK GRI HOWRY3
Aircraft B38M/M-SDE1FGHILORVWXY/HB1

Departure

Time 2026-04-25 04:14
Airport Phoenix Sky Harbor International Airport (KPHX)

Arrival

Time 2026-04-25 06:16
Airport Eppley Airfield (KOMA)
Time Latitude Longitude Altitude Speed Heading
2026-04-25 03:53 33.43402 -112.00267 1127 ft 0 kts 90°
2026-04-25 04:06 33.43401 -112.00272 1094 ft 4 kts 90°
2026-04-25 04:06 33.43404 -112.00303 1122 ft 4 kts 114°
2026-04-25 04:07 33.43417 -112.00317 1127 ft 2 kts 180°
2026-04-25 04:07 33.43440 -112.00317 1121 ft 3 kts 180°
2026-04-25 04:07 33.43443 -112.00317 1121 ft 0 kts 180°
2026-04-25 04:09 33.43440 -112.00317 1127 ft 2 kts 180°
2026-04-25 04:09 33.43408 -112.00317 1123 ft 7 kts 179°
2026-04-25 04:09 33.43348 -112.00316 1122 ft 10 kts 174°
2026-04-25 04:10 33.43293 -112.00255 1125 ft 13 kts 107°
2026-04-25 04:10 33.43285 -112.00138 1123 ft 16 kts 93°
2026-04-25 04:10 33.43283 -111.99996 1122 ft 19 kts 89°
2026-04-25 04:10 33.43283 -111.99821 1122 ft 23 kts 90°
2026-04-25 04:11 33.43283 -111.99527 1124 ft 48 kts 90°
2026-04-25 04:11 33.43230 -111.99346 1133 ft 16 kts 178°
2026-04-25 04:11 33.43152 -111.99344 1136 ft 9 kts 180°
2026-04-25 04:12 33.43107 -111.99364 1136 ft 7 kts 247°
2026-04-25 04:12 33.43105 -111.99389 1135 ft 0 kts 268°
2026-04-25 04:13 33.43105 -111.99390 1135 ft 1 kts 268°
2026-04-25 04:13 33.43104 -111.99409 1135 ft 7 kts 269°
2026-04-25 04:13 33.43103 -111.99722 1135 ft 73 kts 270°
2026-04-25 04:13 33.43102 -112.00602 1134 ft 135 kts 270°
2026-04-25 04:14 33.43106 -112.01905 1332 ft 166 kts 269°
2026-04-25 04:14 33.43096 -112.03292 2029 ft 170 kts 266°
2026-04-25 04:14 33.43096 -112.04616 2923 ft 155 kts 271°
2026-04-25 04:14 33.43153 -112.05993 3398 ft 176 kts 272°
2026-04-25 04:15 33.43202 -112.07558 3823 ft 201 kts 270°
2026-04-25 04:15 33.43245 -112.09338 4339 ft 224 kts 270°
2026-04-25 04:15 33.43297 -112.11256 5104 ft 235 kts 271°
2026-04-25 04:15 33.43353 -112.13245 5990 ft 241 kts 270°
2026-04-25 04:16 33.43412 -112.15267 6888 ft 244 kts 271°
2026-04-25 04:16 33.43792 -112.17260 7714 ft 251 kts 296°
2026-04-25 04:16 33.44929 -112.18826 8552 ft 261 kts 323°
2026-04-25 04:16 33.46639 -112.19630 9351 ft 271 kts 352°
2026-04-25 04:17 33.48543 -112.19637 10127 ft 277 kts 358°
2026-04-25 04:17 33.50486 -112.19615 10885 ft 281 kts 357°
2026-04-25 04:17 33.52455 -112.19590 11651 ft 286 kts 358°
2026-04-25 04:17 33.54489 -112.19199 12084 ft 308 kts 11°
2026-04-25 04:18 33.56633 -112.18547 12438 ft 328 kts 10°
2026-04-25 04:18 33.58917 -112.17869 12736 ft 348 kts 10°
2026-04-25 04:18 33.61262 -112.16860 13160 ft 370 kts 28°
2026-04-25 04:18 33.63284 -112.14875 13747 ft 383 kts 45°
2026-04-25 04:19 33.65133 -112.12520 14281 ft 390 kts 44°
2026-04-25 04:19 33.67011 -112.10146 14938 ft 395 kts 45°
2026-04-25 04:19 33.68912 -112.07733 15544 ft 400 kts 44°
2026-04-25 04:19 33.70832 -112.05289 16167 ft 404 kts 44°
2026-04-25 04:20 33.72774 -112.02814 16781 ft 409 kts 44°
2026-04-25 04:20 33.74727 -112.00288 17303 ft 417 kts 49°
2026-04-25 04:20 33.76455 -111.97527 17855 ft 421 kts 51°
2026-04-25 04:20 33.78223 -111.94695 18347 ft 427 kts 51°
2026-04-25 04:21 33.80024 -111.91846 18893 ft 430 kts 50°
2026-04-25 04:21 33.81848 -111.88977 19424 ft 433 kts 50°
2026-04-25 04:21 33.83688 -111.86089 19930 ft 437 kts 50°
2026-04-25 04:21 33.85544 -111.83174 20453 ft 441 kts 50°
2026-04-25 04:22 33.87416 -111.80234 20940 ft 444 kts 49°
2026-04-25 04:22 33.89305 -111.77263 21472 ft 448 kts 49°
2026-04-25 04:22 33.91204 -111.74275 21926 ft 452 kts 49°
2026-04-25 04:22 33.93120 -111.71258 22414 ft 455 kts 49°
2026-04-25 04:23 33.95052 -111.68213 22888 ft 459 kts 49°
2026-04-25 04:23 33.96992 -111.65151 23375 ft 462 kts 49°
2026-04-25 04:23 33.98961 -111.62069 23754 ft 464 kts 46°
2026-04-25 04:23 34.01290 -111.59442 24141 ft 456 kts 29°
2026-04-25 04:24 34.03923 -111.57315 24485 ft 458 kts 27°
2026-04-25 04:24 34.06593 -111.55202 24935 ft 460 kts 26°
2026-04-25 04:24 34.09284 -111.53101 25378 ft 462 kts 26°
2026-04-25 04:24 34.11998 -111.51005 25809 ft 464 kts 26°
2026-04-25 04:25 34.14733 -111.48907 26186 ft 468 kts 26°
2026-04-25 04:25 34.17484 -111.46776 26598 ft 471 kts 27°
2026-04-25 04:25 34.20232 -111.44609 27002 ft 471 kts 25°
2026-04-25 04:25 34.23018 -111.42499 27339 ft 475 kts 25°
2026-04-25 04:26 34.25813 -111.40358 27708 ft 477 kts 26°
2026-04-25 04:26 34.28623 -111.38191 28077 ft 480 kts 26°
2026-04-25 04:26 34.31448 -111.36011 28422 ft 482 kts 26°
2026-04-25 04:26 34.34279 -111.33823 28797 ft 485 kts 26°
2026-04-25 04:27 34.37131 -111.31616 29086 ft 488 kts 26°
2026-04-25 04:27 34.40001 -111.29394 29386 ft 490 kts 26°
2026-04-25 04:27 34.42838 -111.27197 29690 ft 492 kts 26°
2026-04-25 04:27 34.45768 -111.24930 29931 ft 494 kts 25°
2026-04-25 04:28 34.48676 -111.22672 30162 ft 498 kts 26°
2026-04-25 04:28 34.51594 -111.20403 30435 ft 500 kts 25°
2026-04-25 04:28 34.54487 -111.18152 30677 ft 502 kts 25°
2026-04-25 04:28 34.57432 -111.15856 30924 ft 504 kts 25°
2026-04-25 04:29 34.60391 -111.13556 31154 ft 507 kts 26°
2026-04-25 04:29 34.63148 -111.10830 31543 ft 518 kts 40°
2026-04-25 04:29 34.65582 -111.07591 31860 ft 520 kts 41°
2026-04-25 04:30 34.70478 -111.01015 32287 ft 526 kts 42°
2026-04-25 04:30 34.72915 -110.97691 32552 ft 527 kts 42°
2026-04-25 04:30 34.75353 -110.94356 32881 ft 528 kts 42°
2026-04-25 04:30 34.77792 -110.91020 33208 ft 528 kts 42°
2026-04-25 04:31 34.80232 -110.87676 33525 ft 528 kts 42°
2026-04-25 04:31 34.82668 -110.84334 33839 ft 528 kts 42°
2026-04-25 04:31 34.85108 -110.80985 34114 ft 529 kts 42°
2026-04-25 04:31 34.87543 -110.77637 34421 ft 528 kts 42°
2026-04-25 04:32 34.89980 -110.74286 34691 ft 528 kts 42°
2026-04-25 04:32 34.92411 -110.70939 34984 ft 528 kts 41°
2026-04-25 04:32 34.94846 -110.67582 35274 ft 528 kts 42°
2026-04-25 04:32 34.97281 -110.64223 35430 ft 530 kts 42°
2026-04-25 04:33 34.99689 -110.60898 35548 ft 529 kts 42°
2026-04-25 04:33 35.02121 -110.57536 35799 ft 529 kts 41°
2026-04-25 04:33 35.04553 -110.54171 36048 ft 528 kts 41°
2026-04-25 04:33 35.06978 -110.50812 36286 ft 527 kts 41°
2026-04-25 04:34 35.09405 -110.47448 36519 ft 527 kts 41°
2026-04-25 04:34 35.11824 -110.44091 36762 ft 526 kts 41°
2026-04-25 04:34 35.14235 -110.40741 36993 ft 525 kts 41°
2026-04-25 04:34 35.16647 -110.37388 37209 ft 525 kts 41°
2026-04-25 04:35 35.19055 -110.34036 37412 ft 524 kts 41°
2026-04-25 04:35 35.21458 -110.30688 37615 ft 524 kts 41°
2026-04-25 04:35 35.23859 -110.27342 37802 ft 523 kts 41°
2026-04-25 04:35 35.26252 -110.24000 38050 ft 522 kts 42°
2026-04-25 04:36 35.28642 -110.20661 38248 ft 521 kts 41°
2026-04-25 04:36 35.31024 -110.17329 38431 ft 520 kts 42°
2026-04-25 04:36 35.33408 -110.13992 38563 ft 520 kts 42°
2026-04-25 04:36 35.35788 -110.10658 38689 ft 519 kts 42°
2026-04-25 04:37 35.38156 -110.07335 38804 ft 518 kts 42°
2026-04-25 04:37 35.42896 -110.00678 38801 ft 517 kts 42°
2026-04-25 04:38 35.47620 -109.94028 38794 ft 517 kts 42°
2026-04-25 04:38 35.52343 -109.87369 38803 ft 517 kts 42°
2026-04-25 04:39 35.57060 -109.80705 38825 ft 517 kts 43°
2026-04-25 04:39 35.61753 -109.74060 38792 ft 519 kts 43°
2026-04-25 04:40 35.66484 -109.67349 38798 ft 520 kts 43°
2026-04-25 04:40 35.71221 -109.60617 38781 ft 520 kts 43°
2026-04-25 04:41 35.75945 -109.53889 38790 ft 520 kts 43°
2026-04-25 04:41 35.80671 -109.47146 38790 ft 520 kts 43°
2026-04-25 04:42 35.85395 -109.40392 38797 ft 521 kts 43°
2026-04-25 04:42 35.90131 -109.33607 38815 ft 522 kts 43°
2026-04-25 04:43 35.94860 -109.26818 38787 ft 522 kts 43°
2026-04-25 04:43 35.98796 -109.21158 38808 ft 523 kts 43°
2026-04-25 04:44 36.04325 -109.13191 38803 ft 522 kts 43°
2026-04-25 04:44 36.08245 -109.07530 38790 ft 521 kts 44°
2026-04-25 04:45 36.12946 -109.00730 38794 ft 520 kts 44°
2026-04-25 04:45 36.17648 -108.93914 38783 ft 520 kts 44°
2026-04-25 04:46 36.22343 -108.87096 38774 ft 521 kts 44°
2026-04-25 04:46 36.27039 -108.80261 38792 ft 522 kts 44°
2026-04-25 04:47 36.31742 -108.73403 38777 ft 521 kts 44°
2026-04-25 04:47 36.36430 -108.66552 38776 ft 521 kts 44°
2026-04-25 04:48 36.41118 -108.59687 38775 ft 521 kts 44°
2026-04-25 04:48 36.45801 -108.52817 38776 ft 521 kts 44°
2026-04-25 04:49 36.50487 -108.45927 38809 ft 522 kts 44°
2026-04-25 04:49 36.55173 -108.39023 38784 ft 522 kts 44°
2026-04-25 04:50 36.59862 -108.32103 38866 ft 523 kts 44°
2026-04-25 04:50 36.64523 -108.25212 38896 ft 523 kts 44°
2026-04-25 04:51 36.69211 -108.18265 38874 ft 523 kts 44°
2026-04-25 04:51 36.73890 -108.11317 38902 ft 525 kts 44°
2026-04-25 04:52 36.78569 -108.04287 38874 ft 527 kts 45°
2026-04-25 04:52 36.83250 -107.97256 38851 ft 525 kts 45°
2026-04-25 04:53 36.87910 -107.90241 38824 ft 525 kts 45°
2026-04-25 04:53 36.92569 -107.83215 38807 ft 525 kts 45°
2026-04-25 04:54 36.97225 -107.76177 38900 ft 525 kts 45°
2026-04-25 04:54 37.01845 -107.69180 38919 ft 525 kts 45°
2026-04-25 04:55 37.06493 -107.62126 38926 ft 525 kts 45°
2026-04-25 04:55 37.11148 -107.55045 38911 ft 526 kts 45°
2026-04-25 04:56 37.15797 -107.47958 38887 ft 526 kts 45°
2026-04-25 04:56 37.20438 -107.40870 38871 ft 526 kts 45°
2026-04-25 04:57 37.25069 -107.33779 38834 ft 525 kts 45°
2026-04-25 04:57 37.27380 -107.30235 38942 ft 524 kts 45°
2026-04-25 04:57 37.29686 -107.26696 38953 ft 524 kts 45°
2026-04-25 04:58 37.34302 -107.19600 38966 ft 525 kts 45°
2026-04-25 04:58 37.38916 -107.12492 38986 ft 525 kts 45°
2026-04-25 04:59 37.43482 -107.05440 38988 ft 520 kts 45°
2026-04-25 04:59 37.48039 -106.98397 38879 ft 519 kts 45°
2026-04-25 05:00 37.52603 -106.91334 38905 ft 521 kts 45°
2026-04-25 05:00 37.57145 -106.84256 38884 ft 520 kts 45°
2026-04-25 05:01 37.61701 -106.77159 38862 ft 520 kts 45°
2026-04-25 05:01 37.66258 -106.70051 38887 ft 522 kts 45°
2026-04-25 05:02 37.70795 -106.62945 38974 ft 520 kts 46°
2026-04-25 05:02 37.75343 -106.55824 38906 ft 521 kts 46°
2026-04-25 05:03 37.79856 -106.48734 38971 ft 521 kts 46°
2026-04-25 05:03 37.84391 -106.41596 38955 ft 520 kts 46°
2026-04-25 05:04 37.88916 -106.34455 38935 ft 519 kts 46°
2026-04-25 05:04 37.93425 -106.27326 38898 ft 517 kts 46°
2026-04-25 05:05 37.97920 -106.20203 38792 ft 518 kts 46°
2026-04-25 05:05 38.02406 -106.13079 38802 ft 515 kts 46°
2026-04-25 05:06 38.06860 -106.05991 38780 ft 513 kts 46°
2026-04-25 05:06 38.11313 -105.98889 38787 ft 514 kts 46°
2026-04-25 05:07 38.15758 -105.91784 38785 ft 514 kts 46°
2026-04-25 05:07 38.20202 -105.84664 38789 ft 514 kts 46°
2026-04-25 05:08 38.24644 -105.77531 38772 ft 515 kts 46°
2026-04-25 05:08 38.29083 -105.70396 38816 ft 515 kts 47°
2026-04-25 05:09 38.33521 -105.63236 38781 ft 514 kts 47°
2026-04-25 05:09 38.37910 -105.56141 38772 ft 514 kts 47°
2026-04-25 05:10 38.42336 -105.48973 38751 ft 514 kts 47°
2026-04-25 05:10 38.46759 -105.41793 38760 ft 515 kts 47°
2026-04-25 05:11 38.51156 -105.34640 38765 ft 512 kts 47°
2026-04-25 05:11 38.55565 -105.27451 38749 ft 514 kts 47°
2026-04-25 05:12 38.62172 -105.16646 38734 ft 512 kts 47°
2026-04-25 05:12 38.66563 -105.09454 38733 ft 514 kts 47°
2026-04-25 05:13 38.70955 -105.02234 38745 ft 513 kts 47°
2026-04-25 05:13 38.75303 -104.95043 38771 ft 514 kts 49°
2026-04-25 05:14 38.79673 -104.87838 38936 ft 513 kts 46°
2026-04-25 05:15 38.86279 -104.76937 38930 ft 516 kts 47°
2026-04-25 05:15 38.90684 -104.69631 38886 ft 517 kts 47°
2026-04-25 05:16 38.95081 -104.62327 38943 ft 517 kts 47°
2026-04-25 05:16 38.99460 -104.54984 38931 ft 520 kts 54°
2026-04-25 05:16 39.01052 -104.50800 38912 ft 524 kts 71°
2026-04-25 05:17 39.02023 -104.46280 38938 ft 525 kts 71°
2026-04-25 05:17 39.04654 -104.37531 38906 ft 525 kts 64°
2026-04-25 05:18 39.07610 -104.28929 38806 ft 524 kts 63°
2026-04-25 05:18 39.10622 -104.20382 38757 ft 525 kts 62°
2026-04-25 05:19 39.13631 -104.11862 38747 ft 521 kts 62°
2026-04-25 05:19 39.16620 -104.03363 38763 ft 521 kts 62°
2026-04-25 05:20 39.19606 -103.94854 38829 ft 520 kts 62°
2026-04-25 05:20 39.22576 -103.86363 38832 ft 518 kts 62°
2026-04-25 05:21 39.25538 -103.77873 38866 ft 518 kts 62°
2026-04-25 05:21 39.28471 -103.69442 38870 ft 518 kts 62°
2026-04-25 05:22 39.31416 -103.60951 38865 ft 518 kts 62°
2026-04-25 05:22 39.34359 -103.52439 38847 ft 518 kts 62°
2026-04-25 05:23 39.37291 -103.43937 38802 ft 516 kts 63°
2026-04-25 05:23 39.40201 -103.35471 38708 ft 515 kts 63°
2026-04-25 05:24 39.43105 -103.26997 38690 ft 515 kts 63°
2026-04-25 05:24 39.46005 -103.18513 38702 ft 516 kts 63°
2026-04-25 05:25 39.48897 -103.10026 38708 ft 514 kts 63°
2026-04-25 05:25 39.51776 -103.01550 38690 ft 513 kts 63°
2026-04-25 05:26 39.54648 -102.93072 38699 ft 514 kts 63°
2026-04-25 05:26 39.57515 -102.84583 38695 ft 514 kts 63°
2026-04-25 05:27 39.60372 -102.76097 38705 ft 514 kts 64°
2026-04-25 05:27 39.63204 -102.67661 38708 ft 514 kts 64°
2026-04-25 05:28 39.66052 -102.59152 38699 ft 514 kts 64°
2026-04-25 05:28 39.68893 -102.50639 38702 ft 514 kts 64°
2026-04-25 05:29 39.71728 -102.42118 38694 ft 514 kts 64°
2026-04-25 05:29 39.75076 -102.34024 38721 ft 507 kts 53°
2026-04-25 05:29 39.76772 -102.29987 38648 ft 512 kts 66°
2026-04-25 05:30 39.77497 -102.27074 38692 ft 512 kts 73°
2026-04-25 05:30 39.79764 -102.18286 38699 ft 513 kts 66°
2026-04-25 05:31 39.82465 -102.09680 38709 ft 513 kts 65°
2026-04-25 05:31 39.85244 -102.01137 38746 ft 512 kts 65°
2026-04-25 05:32 39.88037 -101.92592 38723 ft 513 kts 65°
2026-04-25 05:32 39.90827 -101.84027 38723 ft 514 kts 65°
2026-04-25 05:33 39.93597 -101.75503 38721 ft 514 kts 65°
2026-04-25 05:33 39.96377 -101.66918 38700 ft 514 kts 65°
2026-04-25 05:34 39.99134 -101.58381 38713 ft 509 kts 66°
2026-04-25 05:34 40.01876 -101.49862 38720 ft 509 kts 66°
2026-04-25 05:35 40.04611 -101.41339 38725 ft 509 kts 66°
2026-04-25 05:35 40.07341 -101.32806 38723 ft 509 kts 66°
2026-04-25 05:36 40.10040 -101.24344 38730 ft 506 kts 66°
2026-04-25 05:36 40.12736 -101.15865 38733 ft 505 kts 66°
2026-04-25 05:37 40.15425 -101.07379 38736 ft 505 kts 67°
2026-04-25 05:37 40.18109 -100.98887 38744 ft 505 kts 67°
2026-04-25 05:38 40.20787 -100.90385 38749 ft 505 kts 67°
2026-04-25 05:38 40.23461 -100.81870 38756 ft 506 kts 67°
2026-04-25 05:39 40.26130 -100.73346 38757 ft 506 kts 67°
2026-04-25 05:39 40.28792 -100.64813 38757 ft 506 kts 67°
2026-04-25 05:40 40.31448 -100.56278 38759 ft 506 kts 67°
2026-04-25 05:40 40.34086 -100.47771 38754 ft 503 kts 67°
2026-04-25 05:41 40.36715 -100.39266 38767 ft 504 kts 67°
2026-04-25 05:41 40.39338 -100.30754 38769 ft 504 kts 67°
2026-04-25 05:42 40.41941 -100.22279 38767 ft 504 kts 67°
2026-04-25 05:42 40.44555 -100.13746 38772 ft 506 kts 67°
2026-04-25 05:43 40.47180 -100.05144 38787 ft 507 kts 67°
2026-04-25 05:43 40.49798 -99.96542 38792 ft 508 kts 67°
2026-04-25 05:44 40.52416 -99.87912 38798 ft 508 kts 68°
2026-04-25 05:44 40.55027 -99.79274 38805 ft 511 kts 68°
2026-04-25 05:45 40.57663 -99.70523 38816 ft 516 kts 68°
2026-04-25 05:45 40.60286 -99.61791 38826 ft 516 kts 68°
2026-04-25 05:46 40.61601 -99.57402 38826 ft 516 kts 67°
2026-04-25 05:47 40.61983 -99.56128 38827 ft 516 kts 67°
2026-04-25 05:48 40.64610 -99.47331 38833 ft 516 kts 68°
2026-04-25 05:48 40.67253 -99.38520 38834 ft 518 kts 66°
2026-04-25 05:49 40.69881 -99.29648 38866 ft 520 kts 66°
2026-04-25 05:49 40.72484 -99.20821 38890 ft 520 kts 67°
2026-04-25 05:50 40.75101 -99.11944 38895 ft 519 kts 67°
2026-04-25 05:50 40.77709 -99.03068 38902 ft 515 kts 67°
2026-04-25 05:51 40.80277 -98.94295 38860 ft 511 kts 67°
2026-04-25 05:51 40.82832 -98.85535 38875 ft 511 kts 68°
2026-04-25 05:52 40.85379 -98.76771 38891 ft 511 kts 68°
2026-04-25 05:52 40.87919 -98.68008 38894 ft 509 kts 68°
2026-04-25 05:53 40.90434 -98.59298 38897 ft 507 kts 68°
2026-04-25 05:53 40.92942 -98.50582 38900 ft 507 kts 68°
2026-04-25 05:54 40.95427 -98.41922 38925 ft 507 kts 68°
2026-04-25 05:54 40.99112 -98.28789 38930 ft 508 kts 70°
2026-04-25 05:55 41.01472 -98.19960 38917 ft 509 kts 70°
2026-04-25 05:55 41.03835 -98.11154 37845 ft 511 kts 69°
2026-04-25 05:56 41.05021 -98.06726 37340 ft 505 kts 69°
2026-04-25 05:56 41.06195 -98.02335 36358 ft 510 kts 69°
2026-04-25 05:56 41.07371 -97.97920 35877 ft 504 kts 69°
2026-04-25 05:56 41.08534 -97.93553 35324 ft 501 kts 68°
2026-04-25 05:57 41.09690 -97.89206 34722 ft 499 kts 68°
2026-04-25 05:57 41.10841 -97.84869 34077 ft 498 kts 68°
2026-04-25 05:57 41.11989 -97.80530 33335 ft 498 kts 68°
2026-04-25 05:57 41.13135 -97.76195 32583 ft 497 kts 68°
2026-04-25 05:58 41.14278 -97.71862 31844 ft 497 kts 68°
2026-04-25 05:58 41.15419 -97.67532 31107 ft 496 kts 69°
2026-04-25 05:58 41.16554 -97.63216 30379 ft 495 kts 69°
2026-04-25 05:58 41.17688 -97.58900 29588 ft 494 kts 69°
2026-04-25 05:59 41.18818 -97.54591 28697 ft 494 kts 70°
2026-04-25 05:59 41.19929 -97.50338 27782 ft 494 kts 70°
2026-04-25 05:59 41.21053 -97.46034 26592 ft 494 kts 70°
2026-04-25 05:59 41.22181 -97.41709 25292 ft 496 kts 71°
2026-04-25 06:00 41.23308 -97.37378 24209 ft 495 kts 71°
2026-04-25 06:00 41.24426 -97.33076 23210 ft 490 kts 71°
2026-04-25 06:00 41.25528 -97.28822 22150 ft 485 kts 71°
2026-04-25 06:00 41.26618 -97.24611 21176 ft 478 kts 71°
2026-04-25 06:01 41.27694 -97.20446 20230 ft 473 kts 71°
2026-04-25 06:01 41.28756 -97.16327 19316 ft 468 kts 71°
2026-04-25 06:01 41.29806 -97.12253 18437 ft 463 kts 72°
2026-04-25 06:01 41.30841 -97.08224 17500 ft 458 kts 72°
2026-04-25 06:02 41.31852 -97.04288 16642 ft 451 kts 71°
2026-04-25 06:02 41.32858 -97.00362 15818 ft 444 kts 71°
2026-04-25 06:02 41.33847 -96.96495 15007 ft 438 kts 71°
2026-04-25 06:02 41.34820 -96.92688 14237 ft 432 kts 71°
2026-04-25 06:03 41.35779 -96.88935 13495 ft 426 kts 71°
2026-04-25 06:03 41.36689 -96.85213 12701 ft 418 kts 77°
2026-04-25 06:03 41.37148 -96.81437 12172 ft 406 kts 83°
2026-04-25 06:03 41.37547 -96.77798 11768 ft 388 kts 83°
2026-04-25 06:04 41.37935 -96.74316 11366 ft 373 kts 83°
2026-04-25 06:04 41.38310 -96.70971 10982 ft 359 kts 83°
2026-04-25 06:04 41.38672 -96.67749 10632 ft 345 kts 83°
2026-04-25 06:04 41.39020 -96.64641 10328 ft 332 kts 84°
2026-04-25 06:05 41.39352 -96.61670 10082 ft 317 kts 84°
2026-04-25 06:05 41.39667 -96.58836 9810 ft 311 kts 84°
2026-04-25 06:05 41.39982 -96.55988 9437 ft 311 kts 84°
2026-04-25 06:05 41.40299 -96.53138 9064 ft 311 kts 84°
2026-04-25 06:06 41.40613 -96.50309 8703 ft 305 kts 84°
2026-04-25 06:06 41.40917 -96.47550 8369 ft 296 kts 85°
2026-04-25 06:06 41.41209 -96.44903 8108 ft 280 kts 84°
2026-04-25 06:06 41.41483 -96.42421 7831 ft 262 kts 84°
2026-04-25 06:07 41.41741 -96.40074 7512 ft 249 kts 85°
2026-04-25 06:07 41.41984 -96.37845 7229 ft 239 kts 85°
2026-04-25 06:07 41.42222 -96.35648 6979 ft 239 kts 85°
2026-04-25 06:07 41.42459 -96.33468 6716 ft 237 kts 85°
2026-04-25 06:08 41.42694 -96.31300 6454 ft 235 kts 86°
2026-04-25 06:08 41.42927 -96.29157 6195 ft 233 kts 86°
2026-04-25 06:08 41.43158 -96.27029 5929 ft 231 kts 86°
2026-04-25 06:08 41.43386 -96.24927 5704 ft 228 kts 86°
2026-04-25 06:09 41.43611 -96.22842 5583 ft 226 kts 86°
2026-04-25 06:09 41.43835 -96.20764 5473 ft 226 kts 86°
2026-04-25 06:09 41.44058 -96.18694 5373 ft 225 kts 85°
2026-04-25 06:09 41.44276 -96.16661 5260 ft 224 kts 86°
2026-04-25 06:10 41.44496 -96.14613 5140 ft 223 kts 86°
2026-04-25 06:10 41.44715 -96.12565 5008 ft 222 kts 86°
2026-04-25 06:10 41.44930 -96.10556 4864 ft 214 kts 86°
2026-04-25 06:10 41.45135 -96.08641 4694 ft 203 kts 85°
2026-04-25 06:11 41.45326 -96.06863 4560 ft 186 kts 86°
2026-04-25 06:11 41.45354 -96.05212 4342 ft 173 kts 109°
2026-04-25 06:11 41.44785 -96.03852 4169 ft 168 kts 130°
2026-04-25 06:11 41.43973 -96.02731 3982 ft 167 kts 140°
2026-04-25 06:12 41.43061 -96.01777 3786 ft 166 kts 143°
2026-04-25 06:12 41.42129 -96.00867 3577 ft 162 kts 144°
2026-04-25 06:12 41.41273 -96.00045 3419 ft 142 kts 145°
2026-04-25 06:12 41.40506 -95.99309 3234 ft 130 kts 145°
2026-04-25 06:13 41.39786 -95.98622 3074 ft 126 kts 145°
2026-04-25 06:13 41.39077 -95.97945 2903 ft 125 kts 145°
2026-04-25 06:13 41.38381 -95.97281 2736 ft 124 kts 145°
2026-04-25 06:14 41.36981 -95.95932 2398 ft 123 kts 143°
2026-04-25 06:14 41.36275 -95.95258 2215 ft 126 kts 145°
2026-04-25 06:14 41.35552 -95.94577 2057 ft 127 kts 144°
2026-04-25 06:14 41.34826 -95.93886 1879 ft 130 kts 143°
2026-04-25 06:15 41.34084 -95.93178 1692 ft 135 kts 143°
2026-04-25 06:15 41.33245 -95.92382 1476 ft 154 kts 143°
2026-04-25 06:15 41.32354 -95.91538 1245 ft 154 kts 142°
2026-04-25 06:15 41.31493 -95.90715 1027 ft 150 kts 141°
2026-04-25 06:16 41.30722 -95.89976 987 ft 113 kts 146°
2026-04-25 06:16 41.30265 -95.89545 991 ft 57 kts 143°
2026-04-25 06:16 41.30010 -95.89462 989 ft 37 kts 178°
2026-04-25 06:16 41.29753 -95.89459 990 ft 35 kts 182°
2026-04-25 06:17 41.29634 -95.89531 991 ft 17 kts 268°
2026-04-25 06:17 41.29669 -95.89610 994 ft 15 kts 346°
2026-04-25 06:17 41.29759 -95.89613 991 ft 13 kts 346°
2026-04-25 06:17 41.29801 -95.89692 992 ft 10 kts 316°
2026-04-25 06:18 41.29846 -95.89697 987 ft 7 kts 11°
2026-04-25 06:18 41.29927 -95.89689 994 ft 17 kts
2026-04-25 06:18 41.30039 -95.89692 990 ft 14 kts 359°
2026-04-25 06:18 41.30093 -95.89721 988 ft 4 kts 290°
2026-04-25 06:19 41.30098 -95.89764 994 ft 3 kts 273°
2026-04-25 06:19 41.30099 -95.89775 993 ft 0 kts 273°